TimeAST,TemperatureF,Dew PointF,Humidity,Sea Level PressureIn,VisibilityMPH,Wind Direction,Wind SpeedMPH,Gust SpeedMPH,PrecipitationIn,Events,Conditions,WindDirDegrees,DateUTC
12:00 AM,77.0,69.8,78,29.98,3.7,East,6.9,-,N/A,,Unknown,100,2012-11-25 21:00:00
12:30 AM,77.0,71.6,83,29.95,3.7,East,8.1,-,N/A,,Unknown,100,2012-11-25 21:30:00
1:00 AM,77.0,71.6,83,29.95,4.3,East,8.1,-,N/A,,Unknown,100,2012-11-25 22:00:00
1:30 AM,77.0,71.6,83,29.95,5.0,ESE,8.1,-,N/A,,Unknown,110,2012-11-25 22:30:00
2:00 AM,77.0,71.6,83,29.92,-9999.0,ESE,10.4,-,N/A,,Clear,110,2012-11-25 23:00:00
2:30 AM,77.0,71.6,83,29.92,-9999.0,ESE,10.4,-,N/A,,Clear,110,2012-11-25 23:30:00
3:00 AM,77,71,77,29.94,5,ESE,12.7,,,,Haze,120,2012-11-26 00:00:00
3:00 AM,77.0,71.6,83,29.92,5.0,ESE,12.7,-,N/A,,Partly Cloudy,120,2012-11-26 00:00:00
3:30 AM,77.0,71.6,83,29.92,5.0,ESE,11.5,-,N/A,,Partly Cloudy,120,2012-11-26 00:30:00
4:00 AM,77.0,69.8,78,29.92,-9999.0,ESE,11.5,-,N/A,,Clear,120,2012-11-26 01:00:00
4:30 AM,77.0,69.8,78,29.92,-9999.0,ESE,12.7,-,N/A,,Clear,120,2012-11-26 01:30:00
5:00 AM,77.0,69.8,78,29.92,-9999.0,SE,10.4,-,N/A,,Clear,130,2012-11-26 02:00:00
5:30 AM,78.8,69.8,74,29.92,-9999.0,SE,12.7,-,N/A,,Clear,130,2012-11-26 02:30:00
6:00 AM,77.0,69.8,78,29.95,-9999.0,SE,10.4,-,N/A,,Clear,140,2012-11-26 03:00:00
6:30 AM,78.8,69.8,74,29.95,-9999.0,SE,10.4,-,N/A,,Clear,140,2012-11-26 03:30:00
7:00 AM,78.8,69.8,74,29.98,-9999.0,SSE,11.5,-,N/A,,Clear,150,2012-11-26 04:00:00
7:30 AM,80.6,69.8,70,29.98,-9999.0,SE,13.8,-,N/A,,Clear,140,2012-11-26 04:30:00
8:00 AM,80.6,68.0,65,29.98,-9999.0,SE,16.1,-,N/A,,Clear,140,2012-11-26 05:00:00
8:30 AM,80.6,68.0,65,29.98,-9999.0,SE,17.3,-,N/A,,Clear,140,2012-11-26 05:30:00
9:00 AM,82,68,54,30.00,6,SSE,15.0,,,,,150,2012-11-26 06:00:00
9:00 AM,82.4,68.0,62,29.98,-9999.0,SSE,15.0,-,N/A,,Clear,150,2012-11-26 06:00:00
9:30 AM,82.4,64.4,54,29.98,-9999.0,SSE,13.8,-,N/A,,Clear,160,2012-11-26 06:30:00
10:30 AM,82.4,62.6,51,29.98,-9999.0,SSE,15.0,-,N/A,,Clear,150,2012-11-26 07:30:00
11:00 AM,84.2,64.4,51,29.95,-9999.0,SSE,12.7,-,N/A,,Clear,150,2012-11-26 08:00:00
11:30 AM,86.0,62.6,45,29.95,-9999.0,SSE,12.7,-,N/A,,Clear,150,2012-11-26 08:30:00
12:00 PM,86.0,62.6,45,29.92,-9999.0,NE,13.8,-,N/A,,Clear,50,2012-11-26 09:00:00
12:30 PM,86.0,64.4,48,29.92,-9999.0,SSE,12.7,-,N/A,,Clear,150,2012-11-26 09:30:00
1:00 PM,86.0,60.8,43,29.89,-9999.0,SE,12.7,-,N/A,,Clear,130,2012-11-26 10:00:00
1:30 PM,86.0,60.8,43,29.89,-9999.0,SE,13.8,-,N/A,,Clear,140,2012-11-26 10:30:00
2:00 PM,86.0,59.0,40,29.89,-9999.0,SE,13.8,-,N/A,,Clear,140,2012-11-26 11:00:00
2:30 PM,86.0,62.6,45,29.89,-9999.0,SE,12.7,-,N/A,,Clear,130,2012-11-26 11:30:00
3:00 PM,85,60,32,29.89,7,SE,12.7,,,,Mostly Cloudy,140,2012-11-26 12:00:00
3:00 PM,84.2,59.0,42,29.89,-9999.0,SE,12.7,-,N/A,,Clear,140,2012-11-26 12:00:00
3:30 PM,84.2,66.2,55,29.86,-9999.0,ESE,11.5,-,N/A,,Clear,120,2012-11-26 12:30:00
4:00 PM,84.2,60.8,45,29.86,-9999.0,SE,12.7,-,N/A,,Clear,130,2012-11-26 13:00:00
4:30 PM,84.2,59.0,42,29.86,-9999.0,SE,13.8,-,N/A,,Clear,140,2012-11-26 13:30:00
5:00 PM,82.4,62.6,51,29.86,-9999.0,SE,12.7,-,N/A,,Clear,140,2012-11-26 14:00:00
5:30 PM,82.4,62.6,51,29.86,5.0,SSE,12.7,-,N/A,,Unknown,150,2012-11-26 14:30:00
6:00 PM,82.4,64.4,54,29.89,5.0,SE,11.5,-,N/A,,Unknown,140,2012-11-26 15:00:00
7:00 PM,82.4,64.4,54,29.89,4.3,SSE,10.4,-,N/A,,Unknown,150,2012-11-26 16:00:00
7:30 PM,80.6,66.2,61,29.89,4.3,SSE,10.4,-,N/A,,Unknown,150,2012-11-26 16:30:00
8:00 PM,80.6,66.2,61,29.89,3.7,SSE,11.5,-,N/A,,Unknown,150,2012-11-26 17:00:00
8:30 PM,80.6,69.8,70,29.92,3.7,SE,10.4,-,N/A,,Unknown,140,2012-11-26 17:30:00
9:00 PM,80,71,67,29.92,4,SSE,11.5,,,,Haze,150,2012-11-26 18:00:00
9:00 PM,80.6,71.6,74,29.92,4.3,SSE,11.5,-,N/A,,Unknown,150,2012-11-26 18:00:00
9:30 PM,80.6,71.6,74,29.92,4.3,SSE,11.5,-,N/A,,Unknown,150,2012-11-26 18:30:00
10:00 PM,80.6,71.6,74,29.92,4.3,SSE,8.1,-,N/A,,Unknown,150,2012-11-26 19:00:00
10:30 PM,80.6,69.8,70,29.89,5.0,SSE,6.9,-,N/A,,Unknown,150,2012-11-26 19:30:00
11:00 PM,80.6,68.0,65,29.89,5.6,South,4.6,-,N/A,,Unknown,170,2012-11-26 20:00:00
11:30 PM,80.6,69.8,70,29.89,5.6,South,5.8,-,N/A,,Unknown,180,2012-11-26 20:30:00